GW2887 Weather Reports


time (UTC)temp
C
wind
direction
speed
KPH
gust
KPH
rain 1hr
cm
rain 24hr
cm
rain mn
cm
humidity
%
barometer
mb
20260508083010 4 140 4.8 17.7 0.03 0.05 0.05 81 1022.9
20260508081507 4 225 6.4 17.7 0.05 0.05 0.05 81 1022.8
20260508080004 3 246 8.0 17.7 0.05 0.05 0.05 86 1022.7
20260508074503 2 287 3.2 17.7 0.03 0.05 0.05 90 1022.7
20260508073002 2 269 4.8 14.5 0.00 0.03 0.03 87 1022.7
20260508071601 2 321 1.6 14.5 0.00 0.03 0.03 88 1022.5
20260508070059 2 327 4.8 14.5 0.00 0.03 0.03 90 1022.4
20260508064557 2 326 3.2 14.5 0.00 0.03 0.03 91 1022.2
20260508063059 2 330 4.8 14.5 0.00 0.03 0.03 88 1022.1
20260508061557 2 167 3.2 8.0 0.00 0.03 0.03 87 1021.9
20260508060110 3 146 0.0 14.5 0.00 0.03 0.03 87 1021.8
20260508054637 2 146 0.0 14.5 0.00 0.03 0.03 90 1021.6
20260508053053 2 129 1.6 14.5 0.00 0.03 0.03 88 1021.6
20260508051549 3 117 4.8 14.5 0.00 0.03 0.03 87 1021.4
20260508050047 2 211 0.0 14.5 0.00 0.03 0.03 90 1021.3
20260508044542 1 193 0.0 14.5 0.03 0.03 0.03 92 1021.3
20260508043040 1 9 0.0 14.5 0.03 0.03 0.03 93 1021.1
20260508041542 1 200 0.0 14.5 0.03 0.03 0.03 93 1021.0
20260508040038 1 246 1.6 14.5 0.03 0.03 0.03 92 1021.0
20260508034546 1 232 6.4 12.9 0.00 0.00 0.00 92 1021.0
20260508033035 1 243 0.0 9.7 0.00 0.00 0.00 94 1020.8
20260508031534 1 318 0.0 9.7 0.00 0.00 0.00 94 1020.6
20260508030031 1 318 0.0 9.7 0.00 0.00 0.00 94 1020.6
20260508024529 1 318 0.0 9.7 0.00 0.00 0.00 94 1020.6
20260508023027 0 318 0.0 9.7 0.00 0.00 0.00 94 1020.5
20260508021526 0 323 1.6 9.7 0.00 0.00 0.00 94 1020.4
20260508020025 0 308 3.2 9.7 0.00 0.00 0.00 93 1020.3
20260508014525 0 311 3.2 9.7 0.00 0.00 0.00 93 1020.1
20260508013019 0 314 6.4 8.0 0.00 0.00 0.00 93 1020.0
20260508011517 0 325 3.2 6.4 0.00 0.00 0.00 92 1019.8
20260508010026 0 309 1.6 6.4 0.00 0.00 0.00 90 1019.7
20260508004519 1 326 0.0 6.4 0.00 0.00 0.00 90 1019.5
20260508003009 0 330 1.6 6.4 0.00 0.00 0.00 90 1019.4
20260508001507 1 344 0.0 6.4 0.00 0.00 0.00 89 1019.2
20260508000006 1 318 1.6 6.4 0.00 0.00 0.00 89 1019.1
20260507234504 0 318 4.8 6.4 0.00 0.00 0.00 89 1019.0
20260507233003 0 330 3.2 6.4 0.00 0.00 0.00 89 1018.9
20260507231559 0 308 4.8 8.0 0.00 0.00 0.00 90 1018.9
20260507230056 0 6 0.0 6.4 0.00 0.00 0.00 87 1018.7
20260507224554 0 329 1.6 6.4 0.00 0.00 0.00 89 1018.6
20260507223052 0 346 1.6 6.4 0.00 0.00 0.00 87 1018.5
20260507221548 1 321 0.0 3.2 0.00 0.00 0.00 85 1018.4
20260507220045 1 318 1.6 3.2 0.00 0.00 0.00 87 1018.3
20260507214547 1 347 1.6 3.2 0.00 0.00 0.00 84 1018.2
20260507213041 1 332 0.0 6.4 0.00 0.00 0.00 86 1018.2
20260507211543 1 327 1.6 6.4 0.00 0.00 0.00 86 1018.0
20260507210038 1 321 3.2 6.4 0.00 0.00 0.00 87 1017.7
20260507204532 2 322 3.2 6.4 0.00 0.00 0.00 84 1017.5
20260507203036 2 290 3.2 4.8 0.00 0.00 0.00 85 1017.5
20260507201532 2 297 1.6 4.8 0.00 0.00 0.00 84 1017.5
20260507200030 2 288 1.6 4.8 0.00 0.00 0.00 82 1017.3
20260507194530 2 282 1.6 9.7 0.00 0.00 0.00 81 1017.1
20260507193033 2 286 4.8 25.7 0.00 0.00 0.00 81 1017.0
20260507191524 2 252 4.8 25.7 0.00 0.00 0.00 81 1017.0
20260507190026 2 297 11.3 25.7 0.00 0.00 0.00 83 1016.8
20260507184519 4 266 9.7 16.1 0.00 0.00 0.00 72 1016.7
20260507183034 4 275 4.8 16.1 0.00 0.00 0.00 70 1016.5
20260507181516 4 296 4.8 16.1 0.00 0.00 0.00 69 1016.3
20260507180015 5 288 8.0 16.1 0.00 0.00 0.00 65 1016.3
20260507174516 5 231 3.2 14.5 0.00 0.00 0.00 65 1016.1
20260507173012 5 246 8.0 14.5 0.00 0.00 0.00 65 1016.1
20260507171511 5 246 6.4 17.7 0.00 0.00 0.00 65 1016.1
20260507170010 5 251 8.0 17.7 0.00 0.00 0.00 67 1016.0
20260507164508 5 277 9.7 17.7 0.00 0.00 0.00 73 1015.9
20260507163008 5 230 8.0 14.5 0.00 0.00 0.00 74 1015.8
20260507161508 4 246 4.8 16.1 0.00 0.00 0.00 74 1015.8
20260507160017 5 269 8.0 16.1 0.00 0.00 0.00 69 1015.7
20260507154503 5 256 6.4 12.9 0.00 0.00 0.00 69 1015.6
20260507153004 5 260 4.8 14.5 0.00 0.00 0.00 73 1015.6
20260507151600 5 257 11.3 17.7 0.00 0.00 0.00 68 1015.5
20260507144554 -17 0.0 0.0 0.00 0.00 0.00 1015.4
20260507143051 -17 0.0 0.0 0.00 0.00 0.00 1015.3
20260507141546 -17 0.0 0.0 0.00 0.00 0.00 1015.2
20260507140043 5 273 8.0 0.0 0.00 0.00 0.00 72 1015.0
20260507134537 4 273 3.2 0.0 0.00 0.00 0.00 73 1015.0
20260507133035 5 310 4.8 0.0 0.00 0.00 0.00 73 1015.0
20260507131535 4 329 8.0 0.0 0.00 0.00 0.00 83 1014.9
20260507130031 3 346 12.9 0.0 0.00 0.00 0.00 80 1014.9
20260507124545 2 318 12.9 0.0 0.00 0.00 0.00 82 1014.9
20260507123027 3 317 12.9 0.0 0.00 0.00 0.00 76 1014.9
20260507121523 3 287 8.0 0.0 0.00 0.00 0.00 73 1014.7
20260507120021 3 314 6.4 0.0 0.00 0.00 0.00 71 1014.7
20260507114519 3 291 4.8 0.0 0.00 0.10 0.00 72 1014.6
20260507113019 3 283 8.0 0.0 0.00 0.10 0.00 69 1014.4
20260507111516 5 243 4.8 0.0 0.00 0.10 0.00 65 1014.2
20260507110024 5 169 9.7 0.0 0.00 0.10 0.00 1014.0
20260507104506 -17 0.0 0.0 0.00 0.10 0.00 1014.0
20260507103002 -17 0.0 0.0 0.00 0.10 0.00 1013.8
20260507101559 -17 0.0 0.0 0.00 0.10 0.00 1013.7
20260507100056 -17 0.0 0.0 0.00 0.10 0.00 1013.6
20260507094549 -17 0.0 0.0 0.00 0.10 0.00 1013.6
20260507093045 -17 0.0 0.0 0.00 0.10 0.00 1013.5
20260507091544 5 156 11.3 0.0 0.00 0.10 0.00 68 1013.4
20260507090039 5 197 11.3 0.0 0.00 0.10 0.00 67 1013.4
20260507084539 5 224 11.3 0.0 0.00 0.10 0.00 66 1013.4